Regional Weather Roundup
Issued by NWS Northern Indiana

Home | Current Version | Previous Version | Graphics & Text | Print | Product List | Glossary On
Versions: 1 2 3 4 5 6 7 8 9 10 11 12 13 14 15 16 17 18 19 20 21 22 23 24 25 26 27 28 29 30 31 32 33 34 35 36 37 38 39 40 41 42 43 44 45 46 47 48 49 50
998
ASUS43 KIWX 070410
RWRIWX

KIWX WEATHER ROUNDUP
NATIONAL WEATHER SERVICE NORTHERN INDIANA
1100 PM EST SAT FEB 06 2016

NOTE: "FAIR" INDICATES FEW OR NO CLOUDS BELOW 12,000 FEET WITH NO
SIGNIFICANT WEATHER AND/OR OBSTRUCTIONS TO VISIBILITY.

* THESE STATIONS ARE NOT UNDER NWS QUALITY CONTROL. THEY ALSO MAY NOT
  REPORT WEATHER SUCH AS PRECIPITATION OR FOG.

INZ001>027-070500-
NORTHERN INDIANA

CITY           SKY/WX    TMP DP  RH WIND       PRES   REMARKS
GARY*          CLEAR     36  28  75 S7        30.11F
VALPARAISO     CLEAR     33  27  78 S5        30.12F WCI  29
MICHIGAN CITY* CLEAR     34  30  86 S6        30.11F WCI  29
LAPORTE*       PTCLDY    33  31  92 CALM      30.12F
SOUTH BEND     CLEAR     30  25  81 S6        30.12F WCI  24
GOSHEN         CLEAR     33  26  75 S8        30.13F WCI  26
MONTICELLO*    CLEAR     31  25  80 S3        30.14F
LOGANSPORT*    CLEAR     30  25  80 S6        30.15F WCI  24
ROCHESTER*     CLEAR     36  27  69 S6        30.14F
WARSAW*        CLEAR     30  27  86 CALM      30.13F
FORT WAYNE     PTCLDY    30  25  81 S9        30.16F WCI  22
HUNTINGTON*    CLEAR     32  23  69 CALM      30.16F
PERU/GRISSOM   CLEAR     32  26  79 S7        30.13F WCI  25
MARION*        CLEAR     32  20  61 S6        30.17F WCI  26

$$
INZ028>050-070500-
CENTRAL INDIANA

CITY           SKY/WX    TMP DP  RH WIND       PRES   REMARKS
LAFAYETTE      CLEAR     32  24  72 CALM      30.15F
KOKOMO*          N/A     32  25  74 S8        30.15F WCI  25
MUNCIE*        CLEAR     36  25  64 S8        30.17F
INDIANAPOLIS   CLEAR     34  24  67 S7        30.17F WCI  28

$$
MIZ043>046-050>051-056>058-064>065-071>073-077>080-070500-
SOUTHWEST LOWER MICHIGAN

CITY           SKY/WX    TMP DP  RH WIND       PRES   REMARKS
BATTLE CREEK   MOCLDY    31  25  78 S7        30.11F WCI  24
BENTON HARBOR  CLEAR     33  26  75 S7        30.10F WCI  27
COLDWATER*     CLOUDY    32  27  80 SW3       30.12F
HILLSDALE*     MOCLDY    32  24  72 S5        30.12F WCI  28
HOLLAND        CLEAR     30  26  85 S6        30.09F WCI  24
GRAND RAPIDS   PTCLDY    32  26  78 S8        30.09F WCI  25
KALAMAZOO      PTCLDY    31  25  78 S6        30.11F WCI  25
STURGIS*       MOCLDY    30  26  84 S3        30.11F
THREE RIVERS*  FAIR      30  27  89 S6        30.12F WCI  24

$$
OHZ001>008-015>018-024>025-070500-
NORTHWEST OHIO

CITY           SKY/WX    TMP DP  RH WIND       PRES   REMARKS
DEFIANCE       CLEAR     30  24  78 S5        30.17F WCI  25
FINDLAY        CLEAR     28  21  75 S7        30.17F WCI  21
TOLEDO EXPRESS CLOUDY    26  22  84 SW3       30.17F
TOLEDO METCALF PTCLDY    29  22  75 SW6       30.18F WCI  23
LIMA           CLEAR     32  25  75 S9        30.17F WCI  24

$$
AND FOR LAKE MICHIGAN COASTAL AND OPEN LAKE BUOY OBSERVATIONS

STATION/POSITION TEMP    WIND        PRES    VSBY  WAVE
                 AIR SEA DIR/SP/G                  HT/PER
                 (F)     (DEG/KT/KT) (MB)    (MI)  (FT/S)
CALUMET HARBOR    35     180/  4/  8 1019.0F
MICHIGAN CITY     37     160/ 13/ 15   N/A
BURNS HARBOR      36     190/ 10/ 13 1020.3F
SAINT JOSEPH      35     140/  6/ 11 1019.3F

$$
&&




USA.gov is the U.S. government's official web portal to all federal, state and local government web resources and services.